Oklahoma City, OK

11:26 AM CST on February 10, 2016 (GMT -0600)
Tinker Air Force Base

Weather History for KTIK - November, 2012

Change the Weather History Date:

Thursday, November 1, 2012

  Actual Average Record
Temperature  
Mean Temperature 64 °F -  
Max Temperature 77 °F 61 °F 79 °F (2008)
Min Temperature 50 °F 44 °F 30 °F (2014)
Degree Days  
Heating Degree Days 2    
Growing Degree Days 14 (Base 50)    
Moisture  
Dew Point 44 °F    
Average Humidity 50    
Maximum Humidity 68    
Minimum Humidity 32    
Precipitation  
Precipitation 0.00 in - - ()
Sea Level Pressure  
Sea Level Pressure 29.96 in    
Wind  
Wind Speed 8 mph (ESE)    
Max Wind Speed 13 mph    
Max Gust Speed -    
Visibility 10 miles    
Events      
Averages and records for this station are not official NWS values.
T = Trace of Precipitation, MM = Missing Value Source: NWS Daily Summary

Daily Weather History Graph

Daily Weather History Graph

Search for Another Location

Airport or City:

Trip Planner

Search our weather history database for the weather conditions in past years. The results will help you decide how hot, cold, wet, or windy it might be!

Date:

Astronomy

Nov. 01, 2012 Rise Set
Actual Time 7:51 AM CDT 6:34 PM CDT
Civil Twilight 7:25 AM CDT 7:00 PM CDT
Nautical Twilight 6:55 AM CDT 7:30 PM CDT
Astronomical Twilight 6:25 AM CDT 8:00 PM CDT
Moon 8:36 PM CDT (11/1) 10:20 AM CDT (11/1)
Length of Visible Light 11h 35m
Length of Day
10h 42m
Waning Gibbous, 93% of the Moon is Illuminated
Nov 1
Waning Gibbous
Nov 6
Last Quarter
Nov 13
New
Nov 20
First Quarter
Nov 28
Full

Hourly Weather History & Observations

Time (CDT) Temp. Dew Point Humidity Pressure Visibility Wind Dir Wind Speed Gust Speed Precip Events Conditions
12:55 AM 55.8 °F 41.5 °F 59% 30.00 in 10.0 mi East 9.2 mph - N/A   Clear
1:55 AM 55.0 °F 41.2 °F 60% 30.00 in 10.0 mi East 9.2 mph - N/A   Clear
2:55 AM 54.0 °F 41.7 °F 63% 30.01 in 10.0 mi East 10.4 mph - N/A   Clear
3:55 AM 52.0 °F 41.5 °F 68% 30.00 in 10.0 mi East 10.4 mph - N/A   Clear
4:55 AM 51.3 °F 39.9 °F 65% 29.99 in 10.0 mi ESE 9.2 mph - N/A   Clear
5:55 AM 50.7 °F 38.7 °F 63% 30.00 in 10.0 mi ESE 8.1 mph - N/A   Clear
6:55 AM 51.4 °F 38.5 °F 61% 29.99 in 10.0 mi SE 9.2 mph - N/A   Clear
7:55 AM 52.5 °F 39.0 °F 60% 29.99 in 10.0 mi SE 10.4 mph - N/A   Clear
8:55 AM 54.3 °F 40.8 °F 60% 29.99 in 10.0 mi SE 12.7 mph - N/A   Clear
9:55 AM 60.1 °F 43.3 °F 54% 30.00 in 10.0 mi SE 10.4 mph - N/A   Clear
10:55 AM 64.4 °F 45.0 °F 49% 30.00 in 10.0 mi South 8.1 mph - N/A   Clear
11:55 AM 68.5 °F 44.6 °F 42% 29.99 in 10.0 mi Variable 3.5 mph - N/A   Clear
12:55 PM 70.5 °F 45.3 °F 40% 29.97 in 10.0 mi Calm Calm - N/A   Clear
1:55 PM 73.0 °F 46.0 °F 38% 29.94 in 10.0 mi Calm Calm - N/A   Clear
2:55 PM 75.7 °F 46.0 °F 35% 29.92 in 10.0 mi Calm Calm - N/A   Clear
3:55 PM 77.0 °F 45.3 °F 32% 29.91 in 10.0 mi Variable 3.5 mph - N/A   Clear
4:55 PM 77.5 °F 45.7 °F 32% 29.91 in 10.0 mi NNW 3.5 mph - N/A   Clear
5:55 PM 76.3 °F 46.9 °F 35% 29.91 in 10.0 mi NNW 3.5 mph - N/A   Clear
6:55 PM 73.4 °F 44.6 °F 36% 29.92 in 10.0 mi Variable 4.6 mph - N/A   Clear
7:55 PM 71.1 °F 46.8 °F 42% 29.93 in 9.0 mi Calm Calm - N/A   Clear
8:55 PM 67.3 °F 46.8 °F 48% 29.93 in 10.0 mi ENE 5.8 mph - N/A   Clear
9:55 PM 63.7 °F 46.2 °F 53% 29.92 in 10.0 mi East 9.2 mph - N/A   Clear
10:55 PM 62.2 °F 46.4 °F 56% 29.92 in 10.0 mi SE 8.1 mph - N/A   Clear
11:55 PM 61.9 °F 46.0 °F 56% 29.91 in 10.0 mi SE 6.9 mph - N/A   Clear